Location: Unspecified
(56.5167°N, 0.0000°E)
Time: 04:29:47
(UTC+02:00)

Cosmos 1674 - Visible Passes

Search period start: 25 September 2017 00:00
Search period end: 05 October 2017 00:00
Orbit: 497 x 523 km, 82.5° (Epoch: 24 September)

Date Brightness Start Highest point End Pass type
(mag) Time Alt. Az. Time Alt. Az. Time Alt. Az.
25 Sep 3.2 21:50:07 10° NNW 21:53:49 56° W 21:57:05 12° S visible
26 Sep 2.9 21:33:19 10° NNW 21:37:04 70° W 21:40:47 10° S visible
27 Sep 2.6 21:16:33 10° NNW 21:20:20 85° WSW 21:24:04 10° S visible
27 Sep 5.8 22:54:05 10° WNW 22:55:16 11° W 22:56:26 10° W visible
28 Sep 2.5 20:59:48 10° N 21:03:34 79° ENE 21:07:18 10° SSE visible
28 Sep 5.7 22:36:44 10° NW 22:38:37 13° W 22:40:30 10° WSW visible
29 Sep 2.6 20:43:03 10° N 20:46:48 64° ENE 20:50:30 10° SSE visible
29 Sep 5.6 22:19:37 10° NW 22:21:58 16° W 22:24:19 10° WSW visible
30 Sep 2.8 20:26:19 10° N 20:30:01 52° ENE 20:33:40 10° SSE visible
30 Sep 5.4 22:02:35 10° NW 22:05:18 19° W 22:07:59 10° SW visible
01 Oct 3.0 20:09:37 10° N 20:13:13 43° ENE 20:16:48 10° SE visible
01 Oct 5.1 21:45:38 10° NW 21:48:37 23° W 21:51:35 10° SW visible
02 Oct 4.8 21:28:43 10° NNW 21:31:56 27° W 21:35:07 10° SSW visible
03 Oct 4.5 21:11:50 10° NNW 21:15:13 33° W 21:18:35 10° SSW visible
04 Oct 4.1 20:54:58 10° NNW 20:58:30 39° W 21:02:00 10° SSW visible
